Satellite: NOAA-17
Catalog number: 27453
Epoch time:      04309.31447040
Element set:     108
Inclination:       98.6863 deg
RA of node:        19.9643 deg
Eccentricity:    0.0011334
Arg of perigee:   352.2673 deg
Mean anomaly:       7.8371 deg
Mean motion:   14.23588786 rev/day
Decay rate:       2.45e-06 rev/day^2
Epoch rev:           12284
Checksum:              305

/EX
SB KEPS @ AMSAT  $ORB04309.M
Orbital Elements  04309.MISC

HR AMSAT ORBITAL ELEMENTS FOR MANNED AND MISCELLANEOUS SATELLITES
FROM WA5QGD FORT WORTH,TX November 4, 2004
SEND SUBSCRIBE/UNSUBSCRIBE TO majordomo@amsat.org ONLY
BID: ORB04309.M
TO ALL RADIO AMATEURS BT

Satellite: HUBBLE
Catalog number: 20580
Epoch time:      04308.30742512
Element set:     198
Inclination:       28.4694 deg
RA of node:       300.2419 deg
Eccentricity:    0.0003218
Arg of perigee:    30.9754 deg
Mean anomaly:     329.1025 deg
Mean motion:   14.99396811 rev/day
Decay rate:      1.709e-05 rev/day^2
Epoch rev:           59630
Checksum:              287

Satellite: UARS
Catalog number: 21701
Epoch time:      04309.70034931
Element set:     302
Inclination:       56.9815 deg
RA of node:        19.9514 deg
Eccentricity:    0.0003926
Arg of perigee:    95.7961 deg
Mean anomaly:     264.3524 deg
Mean motion:   15.03664958 rev/day
Decay rate:       7.60e-06 rev/day^2
Epoch rev:           71972
Checksum:              300

Satellite: PO-34
Catalog number: 25520
Epoch time:      04309.50999602
Element set:      45
Inclination:       28.4598 deg
RA of node:        13.9707 deg
Eccentricity:    0.0005687
Arg of perigee:   297.0474 deg
Mean anomaly:      62.9544 deg
Mean motion:   15.15855909 rev/day
Decay rate:      2.071e-05 rev/day^2
Epoch rev:           33245
Checksum:              322

Satellite: ISS
Catalog number: 25544
Epoch time:      04309.83856481
Element set:      71
Inclination:       51.6366 deg
RA of node:       328.0665 deg
Eccentricity:    0.0008379
Arg of perigee:   318.5922 deg
Mean anomaly:      41.1748 deg
Mean motion:   15.70273312 rev/day
Decay rate:     2.9611e-04 rev/day^2
Epoch rev:           34040
Checksum:              294

Satellite: OO-38
Catalog number: 26063
Epoch time:      04308.53969314
Element set:     201
Inclination:      100.2266 deg
RA of node:       121.0474 deg
Eccentricity:    0.0036736
Arg of perigee:   330.6850 deg
Mean anomaly:      29.2269 deg
Mean motion:   14.35677687 rev/day
Decay rate:       1.02e-06 rev/day^2
Epoch rev:           24991
Checksum:              294

Satellite: NO-45
Catalog number: 26932
Epoch time:      04309.83427112
Element set:     883
Inclination:       67.0570 deg
RA of node:        85.2467 deg
Eccentricity:    0.0006694
Arg of perigee:   285.3151 deg
Mean anomaly:      74.7209 deg
Mean motion:   14.29450812 rev/day
Decay rate:        5.6e-07 rev/day^2
Epoch rev:           16173
Checksum:              306

/EX



----
Via the keps mailing list at AMSAT.ORG courtesy of AMSAT-NA.
To unsubscribe, send "unsubscribe keps" to Majordomo@amsat.org

--- ViaMAIL!/WC v1.60d
 * Origin: Chowdanet (401-331-0615) telnet://chowdanet.com  (1:323/120)